Location: Six Mile Lake
(44.9000°N, 79.7170°W)
Time: 14:55:16
(UTC-04:00)

LO-87 - Pass Details

Date: 08 July 2022
Orbit: 450 x 466 km, 97.4° (Epoch: 17 August)

Event Time Altitude Azimuth Distance (km) Brightness Sun altitude
Exits shadow 01:36:23 23° 283° (WNW) 1,037 ? -22.6°
Drops below altitude 10° 01:38:39 10° 321° (NW) 1,629 ? -22.5°
Sets 01:40:59 0° 336° (NNW) 2,515 ? -22.5°
